QPF
0.07 0.05 0.03 0.02 0.02 0.02 0.02 0.02 0.03 0.04 0.04 0.03 0.03 0.03 0.03 0.02 0.03 0.03 0.02 0.03 0.03 0.02 0.02 0.02 0.01 0.01 0.01 0.01 0.01 0.01 0.01 0.01 0.01 0.02 0.03 0.03 0.04 0.04
0.09 0.08 0.06 0.04 0.03 0.03 0.02 0.02 0.02 0.03 0.04 0.03 0.03 0.03 0.02 0.02 0.03 0.03 0.03 0.02 0.02 0.02 0.02 0.02 0.01 0.01 0.01 0.01 0.01 0.01 0.01 0.01 0.01 0.02 0.02 0.03 0.03 0.04
0.07 0.07 0.07 0.05 0.04 0.04 0.03 0.02 0.02 0.03 0.03 0.03 0.03 0.03 0.02 0.02 0.02 0.03 0.03 0.03 0.02 0.02 0.03 0.02 0.02 0.02 0.02 0.02 0.02 0.02 0.01 0.01 0.02 0.02 0.02 0.02 0.03 0.03
0.07 0.06 0.06 0.05 0.05 0.05 0.04 0.03 0.03 0.03 0.04 0.04 0.03 0.02 0.02 0.02 0.02 0.03 0.03 0.03 0.03 0.03 0.03 0.03 0.02 0.02 0.02 0.02 0.02 0.02 0.02 0.02 0.02 0.02 0.02 0.02 0.02 0.02
0.07 0.05 0.05 0.04 0.05 0.05 0.04 0.04 0.04 0.04 0.04 0.04 0.03 0.03 0.03 0.02 0.03 0.03 0.04 0.04 0.04 0.03 0.03 0.03 0.03 0.02 0.02 0.02 0.02 0.02 0.03 0.02 0.02 0.02 0.02 0.02 0.02 0.02
0.06 0.05 0.04 0.04 0.04 0.04 0.05 0.05 0.04 0.04 0.03 0.03 0.03 0.03 0.03 0.03 0.04 0.05 0.05 0.05 0.05 0.04 0.04 0.03 0.03 0.03 0.02 0.02 0.02 0.02 0.03 0.03 0.02 0.02 0.02 0.02 0.01 0.01
0.05 0.04 0.03 0.03 0.03 0.03 0.03 0.03 0.04 0.03 0.02 0.02 0.03 0.03 0.03 0.04 0.05 0.04 0.05 0.05 0.06 0.05 0.04 0.04 0.03 0.03 0.03 0.02 0.02 0.01 0.02 0.02 0.02 0.02 0.02 0.02 0.02 0.01
0.04 0.04 0.03 0.03 0.03 0.02 0.02 0.02 0.02 0.02 0.02 0.02 0.02 0.02 0.02 0.02 0.03 0.04 0.04 0.05 0.05 0.04 0.03 0.03 0.02 0.02 0.02 0.02 0.02 0.01 0.02 0.02 0.02 0.02 0.02 0.01 0.01 0.01
0.03 0.03 0.03 0.02 0.02 0.01 0.02 0.01 0.01 0.01 0.02 0.02 0.02 0.02 0.02 0.02 0.02 0.02 0.03 0.03 0.03 0.03 0.03 0.03 0.03 0.02 0.02 0.02 0.02 0.02 0.02 0.02 0.02 0.02 0.01 0.01 0.01 0.02
0.02 0.02 0.02 0.02 0.01 0.01 0.01 0.01 0.01 0.01 0.01 0.01 0.01 0.02 0.02 0.02 0.02 0.02 0.03 0.03 0.03 0.03 0.03 0.03 0.03 0.03 0.03 0.03 0.03 0.02 0.02 0.02 0.02 0.02 0.02 0.01 0.01 0.01
0.02 0.02 0.01 0.01 0.01 0.01 0.01 0.01 0.01 0.01 0.01 0.01 0.01 0.01 0.02 0.02 0.02 0.02 0.02 0.03 0.03 0.03 0.02 0.03 0.03 0.03 0.03 0.03 0.03 0.03 0.02 0.02 0.02 0.02 0.02 0.02 0.01 0.01
0.02 0.02 0.01 0.01 0.01 0.01 0.01 0.01 0.01 0.01 0.01 0.01 0.01 0.01 0.02 0.02 0.02 0.02 0.02 0.02 0.03 0.02 0.02 0.03 0.03 0.04 0.04 0.03 0.03 0.03 0.03 0.02 0.02 0.02 0.02 0.02 0.02 0.01
0.02 0.02 0.01 0.01 0.01 0.01 0.01 0.01 0.01 0.01 0.01 0.01 0.01 0.01 0.01 0.02 0.02 0.02 0.01 0.01 0.02 0.02 0.02 0.02 0.03 0.03 0.03 0.03 0.03 0.03 0.03 0.02 0.02 0.02 0.02 0.02 0.02 0.02
0.02 0.01 0.01 0.01 0.01 0.01 0.01 0.00 0.01 0.01 0.01 0.01 0.01 0.01 0.01 0.02 0.02 0.02 0.01 0.01 0.01 0.01 0.01 0.01 0.02 0.02 0.03 0.03 0.02 0.02 0.02 0.02 0.02 0.01 0.01 0.01 0.01 0.01
0.01 0.01 0.01 0.01 0.01 0.01 0.01 0.00 0.00 0.00 0.00 0.00 0.01 0.01 0.01 0.01 0.01 0.02 0.02 0.02 0.01 0.01 0.01 0.01 0.01 0.02 0.03 0.03 0.02 0.02 0.02 0.02 0.02 0.02 0.01 0.01 0.01 0.01
0.02 0.01 0.01 0.01 0.01 0.01 0.01 0.00 0.00 0.00 0.00 0.01 0.01 0.01 0.01 0.01 0.01 0.01 0.02 0.02 0.02 0.02 0.01 0.01 0.01 0.01 0.02 0.02 0.02 0.02 0.02 0.02 0.02 0.02 0.01 0.01 0.01 0.02
0.02 0.01 0.01 0.01 0.01 0.01 0.00 0.00 0.00 0.00 0.00 0.00 0.00 0.00 0.01 0.01 0.02 0.02 0.01 0.01 0.01 0.02 0.01 0.01 0.01 0.01 0.01 0.01 0.01 0.01 0.01 0.01 0.01 0.01 0.01 0.01 0.02 0.02
0.02 0.01 0.01 0.01 0.01 0.01 0.01 0.01 0.00 0.00 0.00 0.01 0.01 0.01 0.01 0.01 0.02 0.01 0.01 0.01 0.01 0.01 0.01 0.01 0.01 0.01 0.01 0.01 0.01 0.01 0.01 0.01 0.01 0.01 0.01 0.01 0.02 0.02
0.02 0.01 0.01 0.01 0.01 0.01 0.01 0.01 0.00 0.01 0.01 0.01 0.01 0.01 0.01 0.01 0.01 0.01 0.01 0.01 0.01 0.01 0.01 0.01 0.01 0.01 0.01 0.01 0.01 0.01 0.01 0.01 0.00 0.00 0.00 0.01 0.02 0.02
0.02 0.02 0.01 0.01 0.01 0.01 0.01 0.00 0.01 0.01 0.01 0.01 0.01 0.01 0.01 0.01 0.01 0.01 0.01 0.01 0.01 0.01 0.01 0.01 0.01 0.01 0.02 0.02 0.02 0.01 0.01 0.01 0.01 0.01 0.00 0.00 0.00 0.01
0.03 0.02 0.02 0.01 0.01 0.01 0.00 0.01 0.01 0.01 0.01 0.01 0.01 0.01 0.01 0.01 0.01 0.01 0.01 0.01 0.01 0.01 0.01 0.01 0.01 0.01 0.02 0.02 0.01 0.01 0.01 0.01 0.01 0.02 0.02 0.01 0.01 0.01
0.02 0.03 0.02 0.01 0.01 0.01 0.00 0.00 0.00 0.01 0.01 0.01 0.01 0.01 0.01 0.01 0.01 0.01 0.01 0.01 0.01 0.01 0.01 0.01 0.01 0.01 0.01 0.01 0.01 0.01 0.01 0.01 0.01 0.01 0.02 0.03 0.04 0.05
0.02 0.02 0.02 0.01 0.01 0.01 0.00 0.00 0.00 0.00 0.01 0.01 0.01 0.01 0.01 0.01 0.01 0.01 0.01 0.01 0.01 0.01 0.01 0.01 0.01 0.01 0.01 0.01 0.01 0.01 0.01 0.01 0.01 0.02 0.02 0.03 0.04 0.05
MSLP
1024.05 1024.38 1024.70 1025.00 1025.28 1025.52 1025.73 1025.90 1026.02 1026.08 1026.09 1026.03 1025.90 1025.70 1025.44 1025.11 1024.72 1024.29 1023.82 1023.33 1022.81 1022.28 1021.74 1021.20 1020.66 1020.11 1019.56 1019.00 1018.41 1017.82 1017.20 1016.57 1015.91 1015.24 1014.55 1013.86 1013.16 1012.47
1024.01 1024.36 1024.69 1024.98 1025.24 1025.47 1025.65 1025.80 1025.90 1025.95 1025.94 1025.86 1025.72 1025.50 1025.22 1024.86 1024.45 1023.99 1023.49 1022.97 1022.42 1021.88 1021.33 1020.78 1020.23 1019.67 1019.11 1018.53 1017.94 1017.34 1016.71 1016.07 1015.41 1014.74 1014.05 1013.37 1012.68 1011.99
1023.91 1024.28 1024.62 1024.91 1025.15 1025.36 1025.52 1025.65 1025.73 1025.77 1025.75 1025.68 1025.53 1025.32 1025.03 1024.67 1024.24 1023.76 1023.23 1022.67 1022.09 1021.51 1020.93 1020.34 1019.76 1019.18 1018.60 1018.00 1017.40 1016.79 1016.16 1015.53 1014.88 1014.23 1013.57 1012.91 1012.24 1011.56
1023.73 1024.13 1024.48 1024.77 1025.01 1025.20 1025.34 1025.45 1025.52 1025.56 1025.55 1025.49 1025.37 1025.17 1024.90 1024.55 1024.12 1023.63 1023.08 1022.49 1021.87 1021.24 1020.61 1019.97 1019.34 1018.71 1018.09 1017.46 1016.84 1016.21 1015.59 1014.97 1014.35 1013.73 1013.11 1012.47 1011.83 1011.18
1023.48 1023.92 1024.29 1024.59 1024.83 1025.01 1025.14 1025.24 1025.31 1025.35 1025.35 1025.31 1025.22 1025.06 1024.83 1024.51 1024.10 1023.62 1023.06 1022.45 1021.80 1021.12 1020.43 1019.73 1019.03 1018.33 1017.65 1016.97 1016.31 1015.67 1015.04 1014.43 1013.83 1013.24 1012.65 1012.06 1011.45 1010.82
1023.16 1023.65 1024.05 1024.38 1024.63 1024.81 1024.94 1025.03 1025.09 1025.13 1025.16 1025.15 1025.10 1024.99 1024.81 1024.54 1024.18 1023.73 1023.19 1022.57 1021.89 1021.17 1020.42 1019.65 1018.87 1018.09 1017.33 1016.59 1015.87 1015.19 1014.54 1013.92 1013.33 1012.75 1012.19 1011.63 1011.04 1010.44
1022.81 1023.35 1023.80 1024.15 1024.42 1024.61 1024.73 1024.82 1024.88 1024.93 1024.97 1024.99 1024.98 1024.93 1024.81 1024.60 1024.31 1023.91 1023.41 1022.81 1022.13 1021.38 1020.57 1019.74 1018.88 1018.01 1017.16 1016.33 1015.54 1014.80 1014.09 1013.44 1012.83 1012.26 1011.70 1011.15 1010.59 1010.00
1022.44 1023.03 1023.53 1023.92 1024.21 1024.40 1024.53 1024.61 1024.67 1024.72 1024.77 1024.81 1024.85 1024.85 1024.79 1024.67 1024.44 1024.11 1023.67 1023.11 1022.45 1021.69 1020.85 1019.96 1019.03 1018.08 1017.14 1016.21 1015.33 1014.49 1013.72 1013.01 1012.36 1011.75 1011.18 1010.62 1010.06 1009.48
1022.09 1022.72 1023.25 1023.68 1023.99 1024.20 1024.33 1024.41 1024.46 1024.50 1024.55 1024.62 1024.68 1024.73 1024.74 1024.68 1024.54 1024.28 1023.91 1023.41 1022.78 1022.03 1021.18 1020.26 1019.27 1018.25 1017.21 1016.20 1015.21 1014.28 1013.42 1012.62 1011.90 1011.23 1010.62 1010.03 1009.46 1008.88
1021.76 1022.43 1022.99 1023.44 1023.77 1024.00 1024.13 1024.20 1024.25 1024.28 1024.33 1024.40 1024.48 1024.57 1024.62 1024.63 1024.55 1024.37 1024.06 1023.62 1023.04 1022.32 1021.49 1020.55 1019.53 1018.45 1017.35 1016.25 1015.17 1014.14 1013.17 1012.28 1011.47 1010.73 1010.06 1009.43 1008.83 1008.24
1021.48 1022.15 1022.74 1023.21 1023.56 1023.80 1023.94 1024.01 1024.05 1024.08 1024.12 1024.19 1024.28 1024.37 1024.45 1024.49 1024.47 1024.34 1024.09 1023.70 1023.17 1022.49 1021.69 1020.75 1019.73 1018.63 1017.48 1016.31 1015.16 1014.05 1012.99 1012.01 1011.10 1010.28 1009.53 1008.85 1008.21 1007.61
1021.23 1021.91 1022.51 1022.99 1023.37 1023.62 1023.77 1023.85 1023.90 1023.92 1023.96 1024.01 1024.09 1024.18 1024.27 1024.32 1024.31 1024.21 1023.99 1023.65 1023.15 1022.52 1021.74 1020.84 1019.83 1018.73 1017.57 1016.37 1015.17 1013.99 1012.86 1011.80 1010.81 1009.91 1009.09 1008.35 1007.67 1007.04
1021.02 1021.70 1022.31 1022.81 1023.20 1023.48 1023.65 1023.76 1023.81 1023.84 1023.87 1023.91 1023.97 1024.04 1024.10 1024.13 1024.10 1024.00 1023.79 1023.46 1022.99 1022.39 1021.65 1020.79 1019.81 1018.73 1017.58 1016.38 1015.17 1013.95 1012.77 1011.65 1010.60 1009.63 1008.74 1007.94 1007.22 1006.55
1020.86 1021.54 1022.15 1022.67 1023.09 1023.40 1023.61 1023.74 1023.82 1023.86 1023.89 1023.91 1023.94 1023.97 1023.99 1023.97 1023.90 1023.76 1023.53 1023.19 1022.73 1022.14 1021.44 1020.61 1019.67 1018.64 1017.53 1016.35 1015.14 1013.92 1012.71 1011.55 1010.45 1009.42 1008.48 1007.63 1006.85 1006.15
1020.75 1021.43 1022.05 1022.59 1023.03 1023.38 1023.64 1023.81 1023.92 1023.98 1024.01 1024.02 1024.02 1024.00 1023.95 1023.87 1023.73 1023.53 1023.25 1022.88 1022.40 1021.83 1021.14 1020.35 1019.46 1018.48 1017.41 1016.27 1015.08 1013.87 1012.66 1011.47 1010.33 1009.26 1008.27 1007.36 1006.54 1005.79
1020.70 1021.38 1022.01 1022.57 1023.05 1023.44 1023.74 1023.96 1024.10 1024.19 1024.22 1024.22 1024.18 1024.11 1023.99 1023.83 1023.62 1023.34 1023.00 1022.58 1022.08 1021.49 1020.82 1020.06 1019.21 1018.27 1017.25 1016.15 1014.99 1013.79 1012.58 1011.38 1010.21 1009.09 1008.05 1007.10 1006.22 1005.42
1020.73 1021.41 1022.04 1022.62 1023.13 1023.56 1023.89 1024.15 1024.33 1024.43 1024.48 1024.46 1024.39 1024.27 1024.09 1023.85 1023.55 1023.20 1022.79 1022.32 1021.78 1021.18 1020.52 1019.78 1018.96 1018.06 1017.07 1016.01 1014.87 1013.68 1012.47 1011.24 1010.04 1008.89 1007.79 1006.78 1005.85 1004.99
1020.83 1021.51 1022.15 1022.74 1023.26 1023.70 1024.07 1024.35 1024.55 1024.67 1024.72 1024.69 1024.59 1024.42 1024.18 1023.88 1023.52 1023.10 1022.63 1022.11 1021.55 1020.94 1020.27 1019.55 1018.75 1017.87 1016.91 1015.86 1014.74 1013.55 1012.32 1011.06 1009.82 1008.62 1007.47 1006.40 1005.41 1004.49
1021.01 1021.68 1022.31 1022.89 1023.41 1023.85 1024.22 1024.51 1024.72 1024.84 1024.89 1024.85 1024.72 1024.52 1024.24 1023.89 1023.48 1023.02 1022.51 1021.97 1021.39 1020.77 1020.11 1019.39 1018.61 1017.75 1016.80 1015.76 1014.63 1013.42 1012.16 1010.87 1009.58 1008.32 1007.11 1005.97 1004.91 1003.93
1021.28 1021.92 1022.52 1023.07 1023.56 1023.98 1024.33 1024.61 1024.80 1024.92 1024.95 1024.89 1024.75 1024.52 1024.22 1023.85 1023.41 1022.93 1022.41 1021.86 1021.28 1020.67 1020.03 1019.33 1018.56 1017.71 1016.76 1015.72 1014.57 1013.34 1012.05 1010.71 1009.37 1008.05 1006.78 1005.57 1004.45 1003.40
1021.61 1022.21 1022.77 1023.26 1023.70 1024.08 1024.38 1024.62 1024.79 1024.88 1024.89 1024.82 1024.66 1024.43 1024.12 1023.74 1023.31 1022.83 1022.33 1021.79 1021.23 1020.65 1020.02 1019.34 1018.60 1017.76 1016.82 1015.77 1014.61 1013.36 1012.03 1010.65 1009.26 1007.89 1006.56 1005.29 1004.10 1002.98
1021.98 1022.53 1023.01 1023.44 1023.81 1024.12 1024.37 1024.56 1024.68 1024.74 1024.73 1024.64 1024.48 1024.24 1023.94 1023.58 1023.17 1022.72 1022.24 1021.74 1021.22 1020.67 1020.08 1019.44 1018.72 1017.90 1016.98 1015.93 1014.77 1013.51 1012.16 1010.76 1009.33 1007.91 1006.53 1005.21 1003.96 1002.78
1022.38 1022.84 1023.25 1023.60 1023.88 1024.12 1024.30 1024.43 1024.50 1024.53 1024.49 1024.39 1024.22 1024.00 1023.71 1023.37 1022.99 1022.58 1022.15 1021.70 1021.22 1020.73 1020.18 1019.58 1018.90 1018.12 1017.23 1016.21 1015.06 1013.80 1012.46 1011.05 1009.61 1008.16 1006.75 1005.38 1004.07 1002.83
Thickness
5532 5531 5531 5530 5528 5527 5525 5523 5520 5519 5519 5516 5514 5513 5512 5512 5511 5510 5510 5509 5509 5509 5507 5505 5504 5501 5497 5494 5492 5489 5486 5484 5482 5480 5479 5479 5478 5477
5522 5523 5523 5521 5519 5518 5515 5513 5510 5509 5508 5506 5503 5503 5502 5501 5500 5499 5499 5499 5499 5498 5497 5495 5494 5491 5488 5486 5483 5480 5477 5475 5472 5471 5470 5470 5469 5468
5512 5513 5513 5512 5510 5507 5505 5503 5500 5498 5496 5495 5493 5492 5491 5491 5490 5489 5489 5488 5488 5488 5487 5486 5484 5482 5479 5477 5474 5471 5469 5466 5463 5462 5462 5461 5461 5460
5503 5503 5502 5501 5500 5498 5496 5493 5490 5488 5486 5485 5483 5481 5480 5480 5479 5479 5478 5478 5478 5478 5477 5475 5474 5473 5470 5468 5465 5463 5460 5457 5455 5454 5454 5453 5453 5452
5494 5493 5491 5491 5489 5487 5486 5483 5481 5479 5476 5474 5472 5471 5470 5469 5469 5468 5468 5467 5468 5467 5467 5467 5465 5463 5461 5459 5456 5454 5452 5450 5448 5447 5446 5446 5445 5444
5483 5482 5481 5480 5479 5477 5476 5474 5472 5469 5466 5465 5463 5462 5460 5459 5457 5457 5458 5457 5457 5458 5457 5456 5455 5453 5452 5450 5448 5446 5444 5442 5440 5439 5439 5438 5438 5437
5473 5473 5471 5471 5470 5469 5467 5464 5462 5460 5457 5456 5455 5453 5450 5448 5447 5446 5446 5446 5447 5446 5446 5446 5445 5445 5444 5442 5440 5439 5437 5436 5434 5433 5432 5431 5430 5430
5464 5462 5460 5460 5460 5460 5457 5455 5453 5451 5449 5446 5444 5443 5441 5439 5437 5437 5436 5437 5438 5437 5435 5437 5436 5435 5435 5434 5433 5432 5431 5429 5428 5426 5425 5424 5424 5424
5454 5452 5451 5450 5448 5448 5447 5445 5443 5442 5440 5437 5434 5433 5431 5430 5429 5429 5427 5426 5426 5425 5425 5426 5426 5426 5426 5425 5426 5425 5424 5422 5421 5419 5419 5418 5418 5418
5443 5441 5440 5439 5438 5437 5435 5433 5431 5430 5428 5427 5425 5424 5423 5422 5421 5420 5418 5417 5417 5416 5415 5415 5416 5417 5418 5418 5418 5417 5416 5414 5413 5413 5413 5412 5412 5412
5431 5430 5430 5430 5429 5428 5425 5423 5421 5419 5418 5417 5416 5415 5415 5414 5413 5411 5409 5409 5409 5408 5405 5405 5406 5407 5410 5410 5409 5408 5407 5407 5407 5406 5406 5406 5406 5407
5422 5420 5421 5420 5419 5417 5414 5413 5411 5409 5408 5406 5405 5405 5404 5404 5403 5402 5401 5399 5398 5398 5397 5395 5395 5396 5400 5402 5401 5401 5400 5400 5400 5399 5399 5400 5400 5400
5412 5410 5410 5410 5409 5407 5405 5403 5402 5400 5398 5397 5396 5396 5395 5394 5393 5393 5392 5391 5390 5388 5388 5387 5386 5385 5385 5389 5394 5394 5393 5393 5392 5392 5393 5393 5393 5393
5402 5401 5400 5399 5398 5397 5396 5395 5393 5391 5389 5388 5388 5387 5386 5386 5385 5385 5384 5383 5383 5382 5381 5379 5378 5377 5377 5379 5383 5386 5386 5385 5385 5385 5386 5386 5387 5387
5392 5392 5391 5389 5388 5387 5387 5386 5383 5381 5380 5379 5378 5378 5378 5377 5377 5377 5377 5376 5376 5375 5374 5373 5372 5371 5371 5371 5372 5374 5376 5378 5377 5377 5378 5379 5379 5381
5382 5381 5380 5379 5378 5377 5376 5374 5372 5371 5370 5370 5369 5369 5370 5371 5370 5370 5370 5370 5369 5369 5368 5367 5366 5365 5365 5365 5364 5365 5366 5366 5369 5369 5371 5372 5373 5374
5374 5372 5370 5369 5368 5366 5364 5363 5362 5362 5361 5361 5361 5362 5363 5364 5364 5363 5363 5363 5362 5362 5362 5361 5360 5360 5360 5359 5360 5360 5359 5360 5361 5363 5365 5367 5369 5369
5367 5365 5363 5361 5360 5358 5356 5355 5354 5354 5354 5354 5354 5355 5356 5357 5357 5357 5357 5356 5355 5355 5355 5354 5355 5356 5357 5356 5355 5355 5355 5355 5356 5358 5359 5361 5364 5366
5360 5358 5356 5355 5353 5351 5349 5348 5347 5347 5347 5347 5348 5348 5349 5350 5350 5350 5350 5350 5349 5349 5348 5348 5348 5349 5349 5350 5351 5351 5350 5351 5352 5354 5355 5356 5358 5361
5352 5351 5350 5348 5347 5345 5343 5342 5342 5342 5342 5342 5342 5342 5342 5343 5343 5344 5343 5343 5343 5343 5343 5343 5343 5342 5342 5342 5343 5346 5347 5347 5348 5350 5352 5354 5356 5359
5345 5344 5343 5342 5341 5340 5339 5338 5338 5337 5337 5337 5337 5337 5337 5337 5337 5337 5337 5338 5337 5337 5338 5338 5337 5338 5338 5338 5339 5342 5344 5345 5345 5347 5350 5352 5355 5357
5339 5338 5337 5337 5336 5335 5334 5334 5333 5333 5333 5332 5332 5332 5332 5332 5332 5332 5332 5332 5332 5332 5332 5333 5334 5335 5335 5335 5336 5338 5341 5344 5346 5347 5349 5350 5351 5353
5333 5333 5332 5332 5331 5330 5330 5329 5329 5329 5328 5328 5327 5327 5328 5328 5328 5328 5328 5328 5328 5328 5329 5329 5330 5331 5332 5333 5334 5336 5338 5341 5344 5347 5349 5350 5351 5351